Location: Buisson
(44.2787°N, 4.9969°E)
Time: 21:50:26
(UTC+00:00)

X-37B - Pass Details

Date: 04 October 2021
Orbit: 385 x 389 km, 45.0° (Epoch: 17 October)

Event Time Altitude Azimuth Distance (km) Brightness Sun altitude
Exits shadow 04:34:24 18° 225° (SW) 1,035 2.3 -12.8°
Maximum altitude 04:34:53 18° 213° (SSW) 1,013 2.3 -12.7°
Drops below altitude 10° 04:37:10 10° 166° (SSE) 1,406 3.5 -12.3°
Sets 04:39:37 0° 147° (SSE) 2,258 4.8 -11.9°
